Other Public Products
Issued by NWS Grand Forks, ND

Home | Current Version | Previous Version | Text Only | Print | Product List | Glossary Off
Versions: 1 2 3 4 5 6 7 8 9 10 11 12 13 14 15 16 17 18 19 20 21 22 23 24 25 26 27 28 29 30 31 32 33 34 35 36 37 38 39 40 41 42 43 44 45 46 47 48 49 50

000
FPUS83 KFGF 222110
OPUFGF
PRAIRIE TO PINES WEATHER ROUNDUP
NATIONAL WEATHER SERVICE EASTERN NORTH DAKOTA/GRAND FORKS ND
400 PM CDT SAT APR 22 2017

 **SATELLITE DATA USED TO AUGMENT SKY COVER AT AUTOMATED STATIONS**
 *****  WEATHER ACROSS EASTERN NORTH DAKOTA  *****

CITY           SKY/WX    TMP DP  RH WIND       PRES   REMARKS
GRAND FORKS    PTSUNNY   50  40  68 N22       30.18S
GRAND FORKS AF NOT AVBL
GRAND CITY NWS NOT AVBL
BUXTON         NOT AVBL
DEVILS LAKE    CLOUDY    45  35  68 NE20      30.18F
FARGO          FAIR      68  42  38 N12       30.10F
WAHPETON ARPT  FAIR      66  34  30 W13       30.12F
$$

 *****  WEATHER ACROSS CENTRAL AND WESTERN NORTH DAKOTA  *****

CITY           SKY/WX    TMP DP  RH WIND       PRES   REMARKS
JAMESTOWN      PTSUNNY   67  35  30 W9G18     30.09F
BISMARCK       CLOUDY    71  37  28 W12       30.09F
MINOT          CLOUDY    51  39  63 NE12      30.16F
MINOT AFB      NOT AVBL
GARRISON         N/A     58  42  55 E10       30.10F
WILLISTON      CLOUDY    53  40  61 E7        30.16F
DICKINSON      FAIR      62  39  42 VRB6      30.08F
HETTINGER      FAIR      64  41  42 W9        30.13F
$$

 *****  OTHER OBSERVATIONS NORTHEAST NORTH DAKOTA  *****

CITY           SKY/WX    TMP DP  RH WIND       PRES   REMARKS
WALHALLA       NOT AVBL
LANGDON        CLOUDY    34  34 100 NE16      30.21F WCI  23
CAVALIER       LGT SNOW  34  32  93 N15       30.23F WCI  24
GRAFTON        CLOUDY    39  34  81 N20       30.24S
CANDO          NOT AVBL
FORT TOTTEN      N/A     49  37  61 NE9       29.95S
ROLLA          CLOUDY    36  34  93 N16       30.22S
RUGBY          NOT AVBL
 ***** THE ABOVE OBSERVATIONS ARE NON NWS ARE NOT QUALITY
        CONTROLLED AND MAY MIS-REPORT RAIN FOR SNOW...
$$

 *****  OTHER OBSERVATIONS SOUTHEAST NORTH DAKOTA *****

CITY           SKY/WX    TMP DP  RH WIND       PRES   REMARKS
COOPERSTOWN    FAIR      55  46  71 NE15G22   30.15S
VALLEY CITY    FAIR      66  36  32 W16G23    30.12F
OAKES          NOT AVBL
GWINNER        CLEAR     68  41  37 MISG      30.12F
SHEYENNE NWR     N/A     70  36  29 W10       29.95S
BUFFALO        NOT AVBL
WYNDMERE         N/A     70  37  30 W12         N/A
 ***** THE ABOVE OBSERVATIONS ARE NON NWS ARE NOT QUALITY
       CONTROLLED AND MAY MIS-REPORT RAIN FOR SNOW...
$$

  *****  WEATHER ACROSS NORTHERN MINNESOTA  *****

CITY           SKY/WX    TMP DP  RH WIND       PRES   REMARKS
FLAG ISLAND    CLOUDY    39  36  87 N15       30.17S
WARROAD        LGT RAIN  37  34  87 NW12      30.19F
ROSEAU         LGT RAIN  37  34  87 NW13      30.19F
HALLOCK        LGT SNOW  34  32  93 N14       30.22F WCI  24
THF RVR FALLS  FAIR      53  38  56 N14       30.15S
HALSTAD          N/A     63  43  48 N16         N/A
FOSSTON        FAIR      61  41  48 NW10G16   30.12F
BAUDETTE       LGT RAIN  39  36  89 NW12      30.16S
WASKISH        PTSUNNY   54  39  58 N7        30.13S
CROOKSTON      FAIR      54  43  66 N15       30.15F
$$
  *****  WEATHER ACROSS CENTRAL AND WEST MINNESOTA  *****

CITY           SKY/WX    TMP DP  RH WIND       PRES   REMARKS
BEMIDJI        FAIR      62  40  43 W16G26    30.09F
PARK RAPIDS    FAIR      67  34  29 W17G31    30.10F
WADENA         FAIR      64  37  36 W12G22    30.12F
DETROIT LAKES  FAIR      64  36  34 W10G18    30.12F
MOORHEAD       FAIR      66  36  32 W16G23    30.11F
FERGUS FALLS   FAIR      66  39  37 W14G20    30.12F
ELBOW LAKE     FAIR      65  37  35 NW12G24   30.15F
MORRIS MN      FAIR      66  37  34 W10G20    30.14F
STAPLES        FAIR      66  36  32 W10G18    30.13F
WHEATON        FAIR      68  34  28 SW16      30.15F
$$
  *****  WEATHER ELSEWHERE ACROSS MINNESOTA  *****

CITY           SKY/WX    TMP DP  RH WIND       PRES   REMARKS
DULUTH         FAIR      65  36  34 W20       30.06F
INTRNTL FALLS  CLOUDY    48  37  65 NW15      30.12S
ELY            FAIR      63  30  29 NW17G28   30.02S
CLOQUET        FAIR      66  27  22 SW20G28   30.08F
BRAINERD       FAIR      66  34  30 W18G24    30.12F
HIBBING        FAIR      63  33  32 W13G23    30.05F
ALEXANDRIA     FAIR      66  37  34 W13       30.15F
SAINT CLOUD    FAIR      66  34  30 W10G22    30.14F
MINNEAPOLIS    FAIR      68  34  28 W9G18     30.15F
$$

  *****  WEATHER ACROSS SOUTH DAKOTA  *****

CITY           SKY/WX    TMP DP  RH WIND       PRES   REMARKS
SIOUX FALLS    FAIR      67  39  35 VRB6      30.19F
BROOKINGS      FAIR      64  35  34 W15       30.19F
WATERTOWN      FAIR      64  36  35 W10       30.18F
HURON          FAIR      68  37  32 W10       30.18F
SISSETON         N/A     69  38  32 NW15      30.13F
ABERDEEN       FAIR      69  31  24 W15G28    30.15F
MITCHELL       FAIR      66  37  34 W9        30.20F
PIERRE         FAIR      66  34  30 SW12G22   30.16F
MOBRIDGE       FAIR      70  35  27 SW14      30.11F
RAPID CITY     FAIR      65  36  34 S20G26    30.16F
$$

  *****  SOME WEATHER IN NEARBY STATES *****

CITY           SKY/WX    TMP DP  RH WIND       PRES   REMARKS
GLASGOW MT     CLOUDY    48  41  76 E7        30.14F
GREAT FALLS MT FAIR      56  33  42 SE12      30.01F
CHEYENNE WY    FAIR      49  31  49 S7        30.25F
SCOTTSBLUFF NE FAIR      59  29  31 SW3       30.21F
OMAHA NE       PTSUNNY   68  31  25 N9G22     30.19F
DES MOINES IA  PTSUNNY   67  26  21 N10       30.17F
DAVENPORT IA   FAIR      63  32  31 NE12      30.16F
CHICAGO IL     FAIR      59  22  24 NE14      30.16F
EAU CLAIRE WI  FAIR      66  29  24 VRB6G18   30.14F
LA CROSSE WI   FAIR      67  21  17 NW3       30.17F
$$

  *****  SOME NATIONAL WEATHER *****

CITY           SKY/WX    TMP DP  RH WIND       PRES   REMARKS
LA GUARDIA NY  CLOUDY    55  49  80 NE6       29.94R
RALEIGH NC     PTSUNNY   76  68  76 CALM      29.80R
ATLANTA GA     PTSUNNY   81  50  33 S12       29.84F
NEW ORLEANS LA FAIR      84  67  56 S12       29.85F
OKLAHOMA CITY  PTSUNNY   56  40  55 N20G29    30.12F
ALBUQUERQUE NM FAIR      66  25  21 MISG      30.15F
SALT LAKE CITY PTSUNNY   62  27  26 SE9       30.13F
LOS ANGELES CA FAIR      74  59  59 W14       29.86F
BOISE ID       FAIR      67  27  22 SE24G30   29.94F
SEATTLE WA     LGT RAIN  56  48  74 SE8       29.86S
$$

*** WEATHER ACROSS MANITOBA...SASKATCHEWAN AND ONTARIO ***
                ***ONTARIO***

CITY           SKY/WX    TMP DP  RH WIND       PRES   REMARKS
GERALDTON      LGT RAIN  45  39  81 NW13G22   29.96R
THUNDER BAY    CLOUDY    63  36  36 NW15G26   29.94S
SIOUX LOOKOUT  CLOUDY    36  32  87 N6        30.10S
TORONTO        PTSUNNY   55  27  33 N15G21    30.06S
BIG TROUT LK   SUNNY     23   5  46 N10G18    30.20S WCI  12
PICKLE LAKE    FLURRIES  27  21  80 N7        30.10S WCI  19
DRYDEN         CLOUDY    36  34  93 N8        30.11S
KENORA         CLOUDY    37  34  87 N12G18    30.14F
$$
                *** MANITOBA***

CITY           SKY/WX    TMP DP  RH WIND       PRES   REMARKS
BRANDON        PTSUNNY   39  28  65 E15       30.27F
DAUPHIN        CLOUDY    34  27  75 NE13      30.33F WCI  25
ISLAND LAKE    PTSUNNY   23   7  50 N14G20    30.30F WCI  11
PILOT MOUND      N/A     36  21  55 N16G22      N/A
THE PAS        PTSUNNY   34  12  40 NW5       30.33F
THOMPSON       MOSUNNY   18  -2  41 N14G22    30.38S WCI   4
WINNIPEG       PTSUNNY   37  28  70 N15G23    30.26F
LYNN LAKE      PTSUNNY   16   1  53 NW15G21   30.39S WCI   1
CHURCHILL      FLURRIES   1  -8  66 NW21G29   30.41S WCI -20
GILLAM         CLOUDY    14  -2  48 NW12      30.37F WCI   0
$$
                ***SASKATCHEWAN***

CITY           SKY/WX    TMP DP  RH WIND       PRES   REMARKS
ESTEVAN        CLOUDY    41  32  70 E12       30.22F
KINDERSLEY     CLOUDY    48  32  53 E10       30.17F
LLOYDMINSTER   PTSUNNY   41  23  48 NE10      30.26F
PRINCE ALBERT  FLURRIES  37  21  52 SE7       30.31F
REGINA         PTSUNNY   46  30  53 NE12      30.22F
YORKTON        CLOUDY    37  25  60 NE8       30.28F



USA.gov is the U.S. government's official web portal to all federal, state and local government web resources and services.